When you browse on this site, cookies collect data to enhance your experience and personalize the content and advertising you see.
Visit our Privacy Policy to learn more. By continuing to use the site, you agree to this use of cookies and data.
  • In Czech Republic
  • List of Countries
  • For 7 days
  • Water Temperature
  • Satellite Maps
  • Weather Map
  • Weather Widgets
  • user-avatar
    Login

    Hourly Weather Rokszyce

    Today, 19 February, Tuesday

    Time Temperature Precipitation Wind Pressure Humidity
    00:00 +4°C° 0 mm 1 mps 743 mmHg 86%
    01:00 +3°C° 0 mm 2 mps 743 mmHg 86%
    02:00 +3°C° 0 mm 2 mps 743 mmHg 85%
    03:00 +2°C° 0 mm 2 mps 742 mmHg 85%
    04:00 +2°C° 0 mm 2 mps 742 mmHg 85%
    05:00 +2°C° 0 mm 2 mps 742 mmHg 85%
    06:00 +2°C° 0 mm 2 mps 742 mmHg 85%
    07:00 +2°C° 0 mm 2 mps 742 mmHg 86%
    08:00 +2°C° 0 mm 2 mps 741 mmHg 85%
    09:00 +3°C° 0 mm 3 mps 741 mmHg 78%
    10:00 +5°C° 0 mm 3 mps 741 mmHg 71%
    11:00 +7°C° 0 mm 4 mps 741 mmHg 64%
    12:00 +8°C° 0 mm 4 mps 741 mmHg 61%
    13:00 +10°C° 0 mm 4 mps 740 mmHg 57%
    14:00 +12°C° 0 mm 4 mps 740 mmHg 53%
    15:00 +11°C° 0 mm 4 mps 740 mmHg 57%
    16:00 +10°C° 0 mm 4 mps 739 mmHg 60%
    17:00 +8°C° 0 mm 4 mps 739 mmHg 63%
    18:00 +7°C° 0 mm 5 mps 739 mmHg 67%
    19:00 +6°C° 0 mm 5 mps 739 mmHg 70%
    20:00 +5°C° 0 mm 5 mps 739 mmHg 74%
    21:00 +5°C° 0 mm 5 mps 739 mmHg 75%
    22:00 +5°C° 0 mm 5 mps 739 mmHg 77%
    23:00 +4°C° 0 mm 4 mps 739 mmHg 78%

    Tomorrow, 20 February, Wednesday

    Time Temperature Precipitation Wind Pressure Humidity
    00:00 +4°C° 0 mm 4 mps 739 mmHg 80%
    01:00 +4°C° 0 mm 4 mps 739 mmHg 82%
    02:00 +3°C° 0 mm 4 mps 739 mmHg 83%
    03:00 +3°C° 0.4 mm 4 mps 739 mmHg 85%
    04:00 +3°C° 0.4 mm 4 mps 739 mmHg 86%
    05:00 +4°C° 0.4 mm 4 mps 739 mmHg 88%
    06:00 +3°C° 0.1 mm 4 mps 739 mmHg 89%
    07:00 +3°C° 0.1 mm 4 mps 740 mmHg 90%
    08:00 +3°C° 0.1 mm 4 mps 740 mmHg 91%
    09:00 +2°C° 0 mm 5 mps 740 mmHg 88%
    10:00 +3°C° 0 mm 5 mps 740 mmHg 84%
    11:00 +3°C° 0 mm 5 mps 741 mmHg 81%
    12:00 +3°C° 0.1 mm 5 mps 741 mmHg 79%
    13:00 +3°C° 0.1 mm 5 mps 741 mmHg 77%
    14:00 +3°C° 0.1 mm 5 mps 741 mmHg 75%
    15:00 +3°C° 0.1 mm 5 mps 741 mmHg 75%
    16:00 +3°C° 0.1 mm 5 mps 741 mmHg 75%
    17:00 +3°C° 0.1 mm 5 mps 742 mmHg 75%
    18:00 +4°C° 0.1 mm 4 mps 742 mmHg 77%
    19:00 +3°C° 0.1 mm 4 mps 742 mmHg 79%
    20:00 +3°C° 0.1 mm 4 mps 743 mmHg 80%
    21:00 +3°C° 0 mm 4 mps 743 mmHg 81%
    22:00 +3°C° 0 mm 4 mps 743 mmHg 81%
    23:00 +3°C° 0 mm 4 mps 743 mmHg 82%

    Day after tomorrow, 21 February, Thursday

    Time Temperature Precipitation Wind Pressure Humidity
    00:00 +1°C° 0 mm 4 mps 743 mmHg 84%
    01:00 +1°C° 0 mm 4 mps 744 mmHg 85%
    02:00 +1°C° 0 mm 4 mps 744 mmHg 87%
    03:00 +1°C° 0 mm 4 mps 744 mmHg 86%
    04:00 +1°C° 0 mm 4 mps 744 mmHg 84%
    05:00 +1°C° 0 mm 4 mps 744 mmHg 83%
    06:00 +1°C° 0 mm 4 mps 744 mmHg 83%
    07:00 +1°C° 0 mm 4 mps 744 mmHg 84%
    08:00 +1°C° 0 mm 4 mps 744 mmHg 84%
    09:00 +2°C° 0 mm 5 mps 744 mmHg 82%
    10:00 +3°C° 0 mm 5 mps 744 mmHg 79%
    11:00 +5°C° 0 mm 5 mps 744 mmHg 77%
    12:00 +4°C° 0 mm 6 mps 744 mmHg 74%
    13:00 +5°C° 0 mm 6 mps 743 mmHg 70%
    14:00 +7°C° 0 mm 6 mps 743 mmHg 67%
    15:00 +5°C° 0.4 mm 6 mps 742 mmHg 70%
    16:00 +5°C° 0.4 mm 5 mps 742 mmHg 73%
    17:00 +5°C° 0.4 mm 5 mps 742 mmHg 76%
    18:00 +5°C° 0.6 mm 5 mps 742 mmHg 78%
    19:00 +5°C° 0.6 mm 5 mps 741 mmHg 80%
    20:00 +5°C° 0.6 mm 5 mps 741 mmHg 82%
    21:00 +5°C° 0.6 mm 5 mps 741 mmHg 83%
    22:00 +3°C° 0.6 mm 5 mps 741 mmHg 84%
    23:00 +3°C° 0.6 mm 5 mps 741 mmHg 85%

    22 February, Friday

    Time Temperature Precipitation Wind Pressure Humidity
    00:00 +3°C° 1.2 mm 5 mps 740 mmHg 86%
    01:00 +3°C° 1.2 mm 5 mps 740 mmHg 88%
    02:00 +3°C° 1.2 mm 5 mps 740 mmHg 90%
    03:00 +3°C° 0.6 mm 5 mps 740 mmHg 91%
    04:00 +3°C° 0.6 mm 5 mps 740 mmHg 92%
    05:00 +4°C° 0.6 mm 4 mps 740 mmHg 93%
    06:00 +2°C° 0.6 mm 5 mps 740 mmHg 93%
    07:00 +1°C° 0.6 mm 6 mps 741 mmHg 92%
    08:00 -1°C° 0.6 mm 6 mps 741 mmHg 91%
    09:00 -2°C° 0.4 mm 6 mps 743 mmHg 87%
    10:00 -3°C° 0.4 mm 6 mps 744 mmHg 83%
    11:00 -4°C° 0.4 mm 6 mps 745 mmHg 80%
    12:00 -4°C° 0 mm 6 mps 746 mmHg 75%
    13:00 -4°C° 0 mm 6 mps 747 mmHg 70%
    14:00 -4°C° 0 mm 6 mps 748 mmHg 65%
    15:00 -5°C° 0 mm 6 mps 749 mmHg 64%
    16:00 -5°C° 0 mm 6 mps 750 mmHg 63%
    17:00 -6°C° 0 mm 6 mps 750 mmHg 62%
    18:00 -6°C° 0 mm 5 mps 751 mmHg 62%
    19:00 -7°C° 0 mm 5 mps 752 mmHg 62%
    20:00 -7°C° 0 mm 4 mps 752 mmHg 63%
    21:00 -7°C° 0 mm 4 mps 753 mmHg 61%
    22:00 -7°C° 0 mm 4 mps 753 mmHg 60%
    23:00 -6°C° 0 mm 3 mps 754 mmHg 58%

    23 February, Saturday

    Time Temperature Precipitation Wind Pressure Humidity
    00:00 -6°C° 0 mm 3 mps 754 mmHg 57%
    01:00 -6°C° 0 mm 3 mps 754 mmHg 56%
    02:00 -6°C° 0 mm 3 mps 754 mmHg 55%
    03:00 -6°C° 0 mm 3 mps 754 mmHg 56%
    04:00 -6°C° 0 mm 3 mps 754 mmHg 56%
    05:00 -6°C° 0 mm 3 mps 754 mmHg 56%
    06:00 -7°C° 0 mm 3 mps 754 mmHg 56%
    07:00 -7°C° 0 mm 3 mps 754 mmHg 56%
    08:00 -7°C° 0 mm 3 mps 754 mmHg 55%
    09:00 -6°C° 0 mm 3 mps 754 mmHg 51%
    10:00 -5°C° 0 mm 3 mps 754 mmHg 46%
    11:00 -4°C° 0 mm 4 mps 754 mmHg 42%
    12:00 -4°C° 0 mm 4 mps 754 mmHg 40%
    13:00 -4°C° 0 mm 4 mps 754 mmHg 39%
    14:00 -3°C° 0 mm 4 mps 753 mmHg 37%
    15:00 -2°C° 0 mm 3 mps 753 mmHg 38%
    16:00 -2°C° 0 mm 3 mps 753 mmHg 39%
    17:00 -2°C° 0 mm 3 mps 753 mmHg 40%
    18:00 -3°C° 0 mm 2 mps 753 mmHg 43%
    19:00 -3°C° 0 mm 2 mps 752 mmHg 47%
    20:00 -2°C° 0 mm 1 mps 752 mmHg 50%
    21:00 -2°C° 0 mm 1 mps 752 mmHg 51%
    22:00 -2°C° 0 mm 1 mps 752 mmHg 51%
    23:00 -2°C° 0 mm 1 mps 752 mmHg 51%

    24 February, Sunday

    Time Temperature Precipitation Wind Pressure Humidity
    00:00 -2°C° 0 mm 1 mps 752 mmHg 51%
    01:00 -2°C° 0 mm 1 mps 751 mmHg 51%
    02:00 -2°C° 0 mm 1 mps 751 mmHg 50%
    03:00 -2°C° 0 mm 1 mps 751 mmHg 53%
    04:00 -2°C° 0 mm 1 mps 751 mmHg 55%
    05:00 -2°C° 0 mm 1 mps 751 mmHg 58%
    06:00 -2°C° 0 mm 1 mps 751 mmHg 60%
    07:00 -2°C° 0 mm 1 mps 751 mmHg 62%
    08:00 -2°C° 0 mm 1 mps 751 mmHg 64%
    09:00 -1°C° 0 mm 1 mps 751 mmHg 63%
    10:00 -1°C° 0 mm 1 mps 751 mmHg 62%
    11:00 0°C° 0 mm 1 mps 751 mmHg 60%
    12:00 -1°C° 0 mm 2 mps 751 mmHg 59%
    13:00 -1°C° 0 mm 2 mps 751 mmHg 59%
    14:00 +1°C° 0 mm 2 mps 751 mmHg 58%
    15:00 +1°C° 0 mm 2 mps 751 mmHg 61%
    16:00 +1°C° 0 mm 2 mps 751 mmHg 64%
    17:00 +1°C° 0 mm 2 mps 752 mmHg 67%
    18:00 -1°C° 0 mm 2 mps 752 mmHg 71%
    19:00 -1°C° 0 mm 2 mps 752 mmHg 75%
    20:00 -1°C° 0 mm 2 mps 752 mmHg 79%
    21:00 -2°C° 0 mm 2 mps 752 mmHg 81%
    22:00 -2°C° 0 mm 2 mps 752 mmHg 83%
    23:00 -2°C° 0 mm 2 mps 753 mmHg 84%
    Show more